Hourly Data Report for May 03, 2021

CARIBOU POINT (AUT)
NOVA SCOTIA
Current Station Operator: ECCC - MSC

45°46'00.000" N
62°41'00.000" W
2.40 m
8200774
71415
WBK

Download Data

Hourly Data (May 2021)
Hourly Data Report for May 3, 2021
TIME
LST
Temp Definition
°C
Dew Point Definition
°C
Rel Hum Definition
%
Precip. Amount Definition
mm

Wind Dir Definition
10's deg

Wind Spd Definition
km/h
Visibility Definition
km
Stn Press Definition
kPa
Hmdx Definition


Wind Chill Definition


Weather Definition


00:00 7.7 4.3 79 0.0 28 32   99.93     LegendNANA
01:00 6.9 1.2 67 0.0 29 36   100.01     LegendNANA
02:00 6.2 0.1 65 0.0 30 36   100.05     LegendNANA
03:00 5.6 0.5 70 0.0 31 41   100.09     LegendNANA
04:00 5.0 -0.3 69 0.0 31 42   100.18     LegendNANA
05:00 4.8 -0.4 69 0.0 31 48   100.30     LegendNANA
06:00 4.7 -0.7 68 0.0 29 45   100.42     LegendNANA
07:00 4.6 -0.9 68 0.0 29 44   100.54     LegendNANA
08:00 4.8 -1.5 64 0.0 29 46   100.62     LegendNANA
09:00 5.2 -1.2 63 0.0 29 47   100.67     LegendNANA
10:00 5.7 -0.5 64 0.0 30 38   100.69     LegendNANA
11:00 6.0 0.2 66 0.0 31 32   100.70     LegendNANA
12:00 7.0 1.0 66 0.0 31 23   100.70     LegendNANA
13:00 7.4 1.7 67 0.0 31 18   100.73     LegendNANA
14:00 9.6 3.0 64 0.0 28 15   100.73     LegendNANA
15:00 8.5 2.0 64 0.0 32 16   100.75     LegendNANA
16:00 10.1 2.7 60 0.0 29 13   100.77     LegendNANA
17:00 10.3 -0.5 47 0.0 27 14   100.78     LegendNANA
18:00 10.8 -0.2 47 0.0 27 10   100.78     LegendNANA
19:00 10.9 -0.6 45 0.0 27 8   100.81     LegendNANA
20:00 8.4 1.6 62 0.0 19 9   100.85     LegendNANA
21:00 7.6 2.4 69 0.0 22 11   100.91     LegendNANA
22:00 7.6 1.3 64 0.0 22 13   100.93     LegendNANA
23:00 7.1 0.4 62 0.0 22 16   100.93     LegendNANA

Notes on Data Quality.

Legend

  • E = Estimated
  • M = Missing
  • NA = Not Available*
  • [empty] = Indicates an unobserved value
Date modified: